Location: Allie Creek
(37.5926°N, 89.8526°W)
Time: 17:21:09
(UTC+00:00)

USA 81 - Pass Details

Date: 01 May 2024
Orbit: 784 x 786 km, 85.0° (Epoch: 28 May)

Event Time Altitude Azimuth Distance (km) Brightness Sun altitude
Rises 03:42:26 0° 230° (SW) 3,266 7.2 -28.5°
Reaches altitude 10° 03:45:56 10° 254° (WSW) 2,343 6.7 -28.9°
Maximum altitude 03:48:44 14° 287° (WNW) 2,051 6.8 -29.3°
Drops below altitude 10° 03:51:33 10° 319° (NW) 2,350 7.4 -29.6°
Sets 03:55:05 0° 344° (NNW) 3,284 8.3 -30.0°
